Probability
0 0 0 0 0 0 0 0 0 0 0 0 0 0 0 0 0 0 0 0 1 2 2 1 0 0 0 0 0 0 0 0 0 0 0 0 0 0 0 0 0 0 0 0
0 0 0 0 0 0 0 0 0 0 0 0 0 0 0 0 0 0 0 0 0 1 1 1 0 0 0 0 0 0 0 0 0 0 0 0 0 0 0 0 0 0 0 0
0 0 0 0 0 0 0 0 0 0 0 0 0 0 0 0 0 0 0 0 0 0 0 0 0 0 0 0 0 0 0 0 0 0 0 0 0 0 0 0 0 0 0 0
0 0 0 0 0 0 0 0 0 0 0 0 0 0 0 0 0 0 0 0 0 0 0 0 0 0 0 0 0 0 0 0 0 0 0 0 0 0 0 0 0 0 0 0
0 0 0 0 0 0 0 0 0 0 0 0 0 0 0 0 0 0 0 0 0 0 0 0 0 0 0 0 0 0 0 0 0 0 0 0 0 0 0 0 0 0 0 0
0 0 0 0 0 0 0 0 0 0 0 0 0 0 0 0 0 0 0 0 0 0 0 0 0 0 0 0 0 0 0 0 0 0 0 0 0 0 0 0 0 0 0 0
0 0 0 0 0 0 0 0 0 0 0 0 0 0 0 0 0 0 0 0 0 0 0 0 0 0 0 0 0 0 0 0 0 0 0 0 0 0 0 0 0 0 0 0
0 0 0 0 0 0 0 0 0 0 0 0 0 0 0 0 0 0 0 0 0 0 0 0 0 0 0 0 0 0 0 0 0 0 0 0 0 0 0 0 0 0 0 0
0 0 0 0 0 0 0 0 0 0 0 0 0 0 0 0 0 0 0 0 0 0 0 0 0 0 0 0 0 0 0 0 0 0 0 0 0 0 0 0 0 0 0 0
0 0 0 0 0 0 0 0 0 0 0 0 0 0 0 0 0 0 0 0 0 0 0 0 0 0 0 0 0 0 0 0 0 0 0 0 0 0 0 0 0 0 0 0
0 0 0 0 0 0 0 0 0 0 0 0 0 0 0 0 0 0 0 0 0 0 0 0 0 0 0 0 0 0 0 0 0 0 0 0 0 0 0 0 0 0 0 0
0 0 0 0 0 0 0 0 0 0 0 0 0 0 0 0 0 0 0 0 0 0 0 0 0 0 0 0 0 0 0 0 0 0 0 0 0 0 0 0 0 0 0 0
0 0 0 0 0 0 0 0 0 0 0 0 0 0 0 0 0 0 0 0 0 0 0 0 0 0 0 0 0 0 0 0 0 0 0 0 0 0 0 0 0 0 0 0
0 0 0 0 0 0 0 0 0 0 0 0 0 0 0 0 0 0 0 0 0 0 0 0 0 0 0 0 0 0 0 0 0 0 0 0 0 0 0 0 0 0 0 0
0 0 0 0 0 0 0 0 0 0 0 0 0 0 0 0 0 0 0 0 0 0 0 0 0 0 0 0 0 0 0 0 0 0 0 0 0 0 0 0 0 0 0 0
0 0 0 0 0 0 0 0 0 0 0 0 0 0 0 0 0 0 0 0 0 0 0 0 0 0 0 0 0 0 0 0 0 0 0 0 0 0 0 0 0 0 0 0
0 0 0 0 0 0 0 0 0 0 0 0 0 0 0 0 0 0 0 0 0 0 0 0 0 0 0 0 0 0 0 0 0 0 0 0 0 0 0 0 0 0 0 0
0 0 0 0 0 0 0 0 0 0 0 0 0 0 0 0 0 0 0 0 0 0 0 0 0 0 0 0 0 0 0 0 0 0 0 0 0 0 0 0 0 0 0 0
0 0 0 0 0 0 0 0 0 0 0 0 0 0 0 0 0 0 0 0 0 0 0 0 0 0 0 0 0 0 0 0 0 0 0 0 0 0 0 0 0 0 0 0
0 0 0 0 0 0 0 0 0 0 0 0 0 0 0 0 0 0 0 0 0 0 0 0 0 0 0 0 0 0 0 0 0 0 0 0 0 0 0 0 0 0 0 0
0 0 0 0 0 0 0 0 0 0 0 0 0 0 0 0 0 0 0 0 0 0 0 0 0 0 0 0 0 0 0 0 0 0 0 0 0 0 0 0 0 0 0 0
0 0 0 0 0 0 0 0 0 0 0 0 0 0 0 0 0 0 0 0 0 0 0 0 0 0 0 0 0 0 0 0 0 0 0 0 0 0 0 0 0 0 0 0
0 0 0 0 0 0 0 0 0 0 0 0 0 0 0 0 0 0 0 0 0 0 0 0 0 0 0 0 0 0 0 0 0 0 0 0 0 0 0 0 0 0 0 0
0 0 0 0 0 0 0 0 0 0 0 0 0 0 0 0 0 0 0 0 0 0 0 0 0 0 0 0 0 0 0 0 0 0 0 0 0 0 0 0 0 0 0 0
0 0 0 0 0 0 0 0 0 0 0 0 0 0 0 0 0 0 0 0 0 0 0 0 0 0 0 0 0 0 0 0 0 0 0 0 0 0 0 0 0 0 0 0
0 0 0 0 0 0 0 0 0 0 0 0 0 0 0 0 0 0 0 0 0 0 0 0 0 0 0 0 0 0 0 0 0 0 0 0 0 0 0 0 0 0 0 0
Wind_Speed
5 5 2 1 1 2 3 3 1 2 2 1 2 4 6 4 3 4 3 3 4 4 2 1 1 1 1 1 2 2 2 1 2 2 1 1 1 1 1 2 3 3 3 3
4 2 2 1 2 3 2 2 2 2 1 1 2 6 6 5 5 5 5 5 5 4 1 1 1 1 1 1 1 2 2 2 2 2 2 1 1 0 1 2 2 3 3 3
3 1 2 2 3 2 1 2 2 2 3 1 2 6 4 4 3 3 4 4 4 4 4 3 2 2 1 1 2 2 2 2 2 2 2 2 2 1 1 2 2 3 3 3
3 2 2 3 2 1 1 1 1 1 1 2 1 4 6 4 4 5 5 5 5 4 4 3 3 3 2 2 1 1 1 1 2 2 3 3 2 1 1 1 1 2 3 3
2 2 3 2 1 1 2 0 1 0 1 1 1 2 8 2 5 7 7 6 5 5 4 4 4 4 3 2 1 1 1 1 2 2 3 3 2 1 1 1 1 2 2 2
1 1 1 0 1 0 2 1 2 2 2 2 3 3 8 5 6 5 5 5 5 4 4 4 3 2 2 1 1 1 1 1 2 2 2 3 3 2 1 1 1 1 1 2
3 2 2 1 2 2 2 3 4 5 3 5 1 3 10 6 5 4 4 5 5 4 4 4 3 2 2 2 1 1 1 1 1 2 2 2 2 2 2 1 0 1 1 2
2 3 2 2 1 1 0 3 5 3 4 5 1 6 9 3 3 3 3 3 4 4 4 4 4 3 3 3 2 2 2 1 1 2 2 2 2 1 1 1 0 0 0 1
4 3 2 1 1 2 2 1 2 4 1 2 5 7 9 2 3 2 3 2 4 4 4 4 3 3 3 3 3 3 2 1 1 2 2 2 2 2 1 1 1 0 0 1
4 1 3 2 1 2 1 3 3 3 2 3 6 5 6 5 5 4 4 4 4 3 3 3 2 3 3 3 2 2 2 2 1 2 2 2 2 2 1 1 1 0 0 0
2 3 2 2 1 2 1 1 2 2 2 3 4 8 6 5 4 4 5 4 4 4 3 3 2 2 2 2 1 1 1 1 1 1 1 2 1 1 1 1 0 0 0 0
2 3 1 4 1 0 1 2 4 3 3 3 3 9 3 3 3 3 4 3 2 3 2 2 2 2 2 2 2 1 1 1 1 1 2 2 1 1 1 1 0 0 1 0
3 4 3 5 3 1 1 2 2 2 3 3 4 9 3 2 3 2 3 3 2 2 2 2 2 2 2 2 2 2 2 2 1 2 2 2 1 1 1 0 0 1 0 1
3 3 5 7 5 2 4 4 3 4 4 5 8 9 8 5 5 4 3 3 2 2 2 2 2 2 2 2 2 2 2 2 2 2 2 2 1 1 1 0 0 0 1 1
3 2 3 4 3 2 5 6 6 7 7 8 8 8 12 7 6 5 3 2 2 3 3 4 4 3 3 3 2 2 2 2 2 3 2 1 1 1 1 1 0 1 1 0
3 3 1 3 1 3 6 8 8 9 7 8 7 12 11 6 3 4 4 4 5 5 5 5 4 4 4 4 4 3 3 2 2 3 2 1 1 1 1 1 1 1 1 1
3 4 2 3 4 4 9 10 11 8 9 9 12 13 4 3 5 5 5 5 7 7 5 5 5 5 5 5 5 5 4 3 3 2 2 2 2 1 1 1 1 1 0 1
6 5 3 0 3 6 9 3 9 8 9 11 10 8 6 7 5 4 5 7 7 7 6 6 5 5 4 4 4 3 3 3 3 3 2 2 2 2 1 1 1 1 1 1
3 6 4 3 2 11 10 4 7 7 9 11 14 12 8 2 3 6 6 7 8 7 5 5 5 4 4 4 4 4 4 4 3 3 3 3 3 2 2 2 2 1 1 1
3 4 5 4 3 9 7 3 5 4 7 7 11 11 7 4 2 6 2 3 4 3 3 3 3 3 3 3 4 5 4 4 5 5 4 3 3 3 3 2 2 1 1 1
3 3 4 5 6 13 8 4 6 4 8 3 8 8 8 9 7 3 1 1 2 2 2 2 3 3 4 4 5 5 4 5 4 3 3 3 3 3 3 2 2 2 1 1
11 9 8 7 6 14 6 9 11 9 2 2 5 6 8 7 4 3 2 2 2 2 1 2 3 3 2 4 5 5 5 4 3 3 3 3 3 3 2 3 2 2 2 2
11 12 10 14 13 5 9 10 8 3 3 4 4 5 6 5 5 4 3 3 3 3 3 3 3 3 2 3 5 6 4 3 4 4 3 3 2 2 3 3 3 2 2 2
6 4 5 7 12 9 9 9 7 6 6 5 4 4 5 6 5 5 4 4 3 3 3 3 4 4 3 3 4 4 3 4 4 4 3 3 3 2 2 2 2 3 3 3
8 8 6 9 10 7 8 10 11 8 6 5 5 5 6 6 6 5 5 5 4 3 3 3 4 5 4 3 3 3 4 5 4 4 3 3 3 3 3 2 3 4 4 4
9 12 12 12 9 7 6 4 4 6 7 7 5 4 4 6 6 5 5 4 4 3 3 3 4 4 4 4 4 3 4 5 5 4 4 3 3 3 3 2 2 4 4 4
Wind_Direction
24 57 43 270 197 142 135 144 223 277 317 345 262 271 273 259 244 254 253 250 255 245 244 234 184 152 137 162 162 172 141 121 118 105 101 92 50 33 48 56 53 44 34 30
48 35 308 336 90 90 117 130 279 301 331 286 284 280 265 240 225 227 233 232 237 252 240 242 211 156 170 188 197 184 173 158 148 140 134 134 121 57 48 44 43 42 39 30
114 283 329 71 65 67 49 188 226 268 328 356 323 299 267 253 232 233 234 227 221 223 219 219 216 201 187 208 220 211 190 165 161 139 114 97 82 54 28 24 23 25 35 40
63 344 57 68 52 88 265 228 176 245 336 307 13 289 275 253 262 244 237 230 223 222 219 208 213 210 209 224 222 210 200 168 159 141 141 143 138 133 341 3 12 16 30 37
25 8 48 59 333 111 185 79 101 206 194 306 320 249 282 276 259 252 236 227 223 216 211 209 214 213 203 199 197 206 186 159 143 145 151 149 143 133 81 47 24 13 23 28
65 347 37 114 321 158 166 59 44 44 63 291 236 203 276 238 230 250 233 223 218 212 210 210 214 199 181 177 181 173 172 167 151 146 149 159 159 151 132 64 10 354 15 25
7 358 3 24 49 14 59 81 33 4 358 261 229 219 252 246 228 227 233 227 215 204 205 204 204 205 197 191 191 179 175 187 165 148 148 160 166 166 173 190 228 342 13 13
95 306 326 1 115 175 275 125 148 197 241 283 282 241 256 253 254 253 247 228 204 203 206 208 207 207 207 197 191 188 197 203 162 153 159 151 152 161 176 172 184 287 333 344
155 245 328 338 307 135 116 128 151 131 69 300 280 285 297 266 272 259 246 226 220 218 213 211 207 213 206 198 198 194 196 195 190 183 164 153 150 150 159 139 101 68 0 1
137 170 305 312 35 32 95 145 102 119 146 281 296 279 261 271 262 258 246 237 235 224 218 214 212 207 201 197 196 179 179 191 198 184 173 156 152 144 137 114 97 112 6 1
116 126 321 1 183 197 91 109 117 120 158 171 284 276 233 234 240 238 245 239 229 222 216 213 216 204 187 173 164 165 160 147 160 159 141 133 134 121 117 117 158 165 100 66
128 114 262 262 239 183 202 194 163 163 230 203 231 271 275 242 250 239 252 251 228 215 207 197 203 185 175 183 177 176 160 164 179 140 127 127 121 113 113 119 98 67 67 60
137 114 48 346 333 324 263 225 196 140 129 173 202 266 300 311 292 261 248 252 233 209 198 187 191 188 196 200 188 185 174 186 164 135 134 121 118 117 120 109 68 72 83 68
113 140 178 207 234 199 233 223 187 152 177 215 229 257 288 285 281 281 263 245 232 219 205 199 203 204 197 194 191 187 186 173 154 141 140 137 157 163 159 129 113 113 103 87
119 183 232 261 275 234 233 222 201 207 209 211 239 242 261 262 250 255 248 231 221 227 218 212 208 207 198 194 193 185 186 173 158 146 144 174 170 146 129 116 110 92 74 68
115 150 144 292 287 264 264 244 218 226 229 237 262 268 260 266 249 252 244 224 231 233 224 218 212 205 202 200 196 190 192 183 157 156 171 169 143 127 132 132 102 88 79 71
141 128 116 277 318 343 276 226 194 208 214 198 222 242 256 258 244 240 235 226 229 233 225 216 212 209 207 201 191 193 194 165 156 166 172 166 157 158 167 133 107 115 133 100
145 130 127 348 27 256 249 181 183 207 233 215 234 249 241 243 260 253 229 224 236 232 225 218 210 205 204 191 182 180 160 157 165 173 183 179 168 176 161 138 151 167 129 120
153 139 125 129 247 277 288 215 174 192 261 219 224 245 253 260 326 285 239 219 228 229 223 214 204 196 184 183 178 165 163 163 171 187 197 193 181 178 169 175 187 170 137 136
77 107 125 143 198 246 253 174 165 138 281 230 204 224 222 152 223 263 227 196 214 220 211 200 180 170 179 184 164 164 176 176 195 201 198 187 178 178 185 194 187 157 150 173
149 136 165 181 226 260 249 153 136 169 246 217 194 205 186 192 216 231 156 175 192 202 201 172 165 177 189 170 160 175 184 202 206 182 168 172 175 180 186 178 164 152 152 143
176 172 187 165 208 254 189 150 188 216 235 192 195 195 193 212 236 241 228 219 207 210 199 168 170 191 184 169 169 185 204 203 167 160 169 178 175 172 168 163 166 159 161 171
201 192 185 194 216 242 177 201 219 210 225 223 206 202 192 205 226 230 226 223 222 214 207 187 181 188 194 187 183 199 207 164 156 161 175 178 169 169 166 167 171 169 176 190
233 195 192 244 257 246 232 242 247 231 230 234 221 206 193 209 223 230 229 223 220 216 206 191 179 192 213 205 200 205 185 162 160 173 183 176 170 174 172 175 177 184 193 202
205 171 199 246 267 287 261 231 238 239 237 241 236 217 212 211 226 225 226 225 219 215 204 190 196 207 217 203 204 197 177 161 167 176 181 181 183 185 186 193 202 205 212 207
186 181 187 224 221 211 242 240 223 218 231 230 225 232 224 211 223 225 230 228 219 216 206 206 212 214 215 199 204 197 181 171 171 181 186 188 189 191 191 195 230 240 233 236